This demonstration page uses our WeatherBlox Daily Observations layout. Learn more.

Left ArrowRight Arrow

38.20091, -84.87328

Hourly Observations for July 20, 2020

Temp ( °F °C ) Dew Point ( °F °C ) Humidity (%) Winds ( mph kmh ) Pressure ( in mb ) Visibility ( mi km ) Precip ( " mm )
12:53 am 00:53 Clear 80 26.7 72 22.2 76 76 SSW 10 17 29.95 1014 10 16 0.00 0.00
1:53 am 01:53 Clear 78 25.6 71 21.7 79 79 SSW 5 7 29.96 1015 10 16 0.00 0.00
2:53 am 02:53 Clear 78 25.6 71 21.7 79 79 Calm 29.98 1015 10 16 0.00 0.00
3:53 am 03:53 Clear 78 25.6 71 21.7 79 79 Calm 29.98 1015 10 16 0.00 0.00
4:53 am 04:53 Clear 75 23.9 71 21.7 88 88 Calm 29.98 1015 10 16 0.00 0.00
5:53 am 05:53 Clear 75 23.9 71 21.7 88 88 NNW 3 6 29.99 1016 10 16 0.00 0.00
6:53 am 06:53 Sunny 75 23.9 70 21.1 84 84 E 5 7 29.99 1016 10 16 0.00 0.00
7:53 am 07:53 Sunny 77 25 70 21.1 79 79 E 6 9 29.99 1016 10 16 0.00 0.00
8:53 am 08:53 Sunny 79 26.1 70 21.1 74 74 E 6 9 30.01 1016 10 16 0.00 0.00
9:53 am 09:53 Sunny 83 28.3 71 21.7 67 67 E 5 7 30.01 1016 10 16 0.00 0.00
10:53 am 10:53 Mostly Cloudy 85 29.4 71 21.7 63 63 Calm 30.01 1016 10 16 0.00 0.00
11:53 am 11:53 Mostly Sunny 87 30.6 74 23.3 65 65 VRB 5 7 30.01 1016 10 16 0.00 0.00
12:53 pm 12:53 Partly Cloudy 88 31.1 74 23.3 63 63 undefined N/A 30.00 1016 10 16 0.00 0.00
1:53 pm 13:53 Mostly Sunny 89 31.7 74 23.3 61 61 VRB 6 9 29.98 1015 10 16 0.00 0.00
2:53 pm 14:53 Partly Cloudy 90 32.2 72 22.2 56 56 W 3 6 29.97 1015 10 16 0.00 0.00
3:53 pm 15:53 Partly Cloudy 85 29.4 74 23.3 70 70 SW 9 15 29.97 1015 10 16 0.00 0.00
4:53 pm 16:53 Mostly Cloudy 80 26.7 73 22.8 79 79 SW 7 11 29.97 1015 10 16 0.01 0.25
5:53 pm 17:53 Sunny 79 26.1 73 22.8 82 82 Calm 29.96 1015 10 16 0.00 0.00
6:53 pm 18:53 Partly Cloudy 79 26.1 72 22.2 79 79 Calm 29.96 1015 10 16 0.00 0.00
7:53 pm 19:53 Sunny 79 26.1 72 22.2 79 79 WSW 5 7 29.98 1015 10 16 0.00 0.00
8:53 pm 20:53 Sunny 77 25 71 21.7 82 82 SW 3 6 29.97 1015 10 16 0.00 0.00
9:53 pm 21:53 Clear 78 25.6 71 21.7 79 79 VRB 3 6 29.98 1015 10 16 0.00 0.00
10:53 pm 22:53 Clear 76 24.4 71 21.7 85 85 SSW 3 6 29.99 1016 10 16 0.00 0.00
11:53 pm 23:53 Clear 75 23.9 71 21.7 88 88 WNW 3 6 30.00 1016 10 16 0.00 0.00

Powered by AerisWeather